Time,TemperatureF,DewpointF,PressureIn,WindDirection,WindDirectionDegrees,WindSpeedMPH,WindSpeedGustMPH,Humidity,HourlyPrecipIn,Conditions,Clouds,dailyrainin,SoftwareType,DateUTC
2013-04-05 00:12:00,34.3,12.0,29.92,SW,223,0.0,-999.0,40,-99.99,,,0.00,weatherlink.com 1.10,2013-04-05 04:12:00,
2013-04-05 00:42:00,34.3,12.0,29.91,SW,231,0.0,-999.0,40,-99.99,,,0.00,weatherlink.com 1.10,2013-04-05 04:42:00,
2013-04-05 00:57:00,33.8,12.0,29.91,WSW,237,0.0,-999.0,41,-99.99,,,0.00,weatherlink.com 1.10,2013-04-05 04:57:00,
2013-04-05 01:12:00,33.2,12.0,29.91,WSW,237,0.0,-999.0,42,-99.99,,,0.00,weatherlink.com 1.10,2013-04-05 05:12:00,
2013-04-05 01:27:00,33.2,12.0,29.90,WSW,237,0.0,-999.0,41,-99.99,,,0.00,weatherlink.com 1.10,2013-04-05 05:27:00,
2013-04-05 01:43:00,33.5,13.0,29.89,SW,223,0.0,-999.0,42,-99.99,,,0.00,weatherlink.com 1.10,2013-04-05 05:43:00,
2013-04-05 01:57:00,33.1,13.0,29.89,SW,223,0.0,-999.0,43,-99.99,,,0.00,weatherlink.com 1.10,2013-04-05 05:57:00,
2013-04-05 02:12:00,33.1,13.0,29.89,SSW,209,0.0,-999.0,43,-99.99,,,0.00,weatherlink.com 1.10,2013-04-05 06:12:00,
2013-04-05 02:27:00,33.1,13.0,29.90,SSW,209,0.0,-999.0,43,-99.99,,,0.00,weatherlink.com 1.10,2013-04-05 06:27:00,
2013-04-05 02:42:00,33.8,12.0,29.91,North,355,0.0,-999.0,41,-99.99,,,0.00,weatherlink.com 1.10,2013-04-05 06:42:00,
2013-04-05 02:57:00,34.3,14.0,29.91,North,355,0.0,-999.0,43,-99.99,,,0.00,weatherlink.com 1.10,2013-04-05 06:57:00,
2013-04-05 03:12:00,34.4,14.0,29.90,North,355,0.0,-999.0,44,-99.99,,,0.00,weatherlink.com 1.10,2013-04-05 07:12:00,
2013-04-05 03:27:00,34.7,15.0,29.90,North,355,0.0,-999.0,44,-99.99,,,0.00,weatherlink.com 1.10,2013-04-05 07:27:00,
2013-04-05 03:42:00,35.6,16.0,29.90,North,355,0.0,-999.0,44,-99.99,,,0.00,weatherlink.com 1.10,2013-04-05 07:42:00,
2013-04-05 03:57:00,35.9,17.0,29.90,SW,217,0.0,-999.0,46,-99.99,,,0.00,weatherlink.com 1.10,2013-04-05 07:57:00,
2013-04-05 04:12:00,36.2,16.0,29.90,SW,217,0.0,-999.0,44,-99.99,,,0.00,weatherlink.com 1.10,2013-04-05 08:12:00,
2013-04-05 04:27:00,36.3,17.0,29.91,SW,217,0.0,-999.0,46,-99.99,,,0.00,weatherlink.com 1.10,2013-04-05 08:27:00,
2013-04-05 04:43:00,36.3,18.0,29.92,West,262,0.0,-999.0,47,-99.99,,,0.00,weatherlink.com 1.10,2013-04-05 08:43:00,
2013-04-05 04:57:00,36.3,19.0,29.92,North,360,0.0,-999.0,50,-99.99,,,0.00,weatherlink.com 1.10,2013-04-05 08:57:00,
2013-04-05 05:12:00,36.2,19.0,29.92,North,360,0.0,-999.0,51,-99.99,,,0.00,weatherlink.com 1.10,2013-04-05 09:12:00,
2013-04-05 05:27:00,35.9,20.0,29.92,North,360,0.0,-999.0,53,-99.99,,,0.00,weatherlink.com 1.10,2013-04-05 09:27:00,
2013-04-05 05:42:00,35.8,20.0,29.93,North,360,0.0,-999.0,54,-99.99,,,0.00,weatherlink.com 1.10,2013-04-05 09:42:00,
2013-04-05 05:57:00,35.5,21.0,29.93,North,360,0.0,-999.0,56,-99.99,,,0.00,weatherlink.com 1.10,2013-04-05 09:57:00,
2013-04-05 06:12:00,35.0,21.0,29.93,North,360,0.0,-999.0,57,-99.99,,,0.00,weatherlink.com 1.10,2013-04-05 10:12:00,
2013-04-05 06:27:00,34.9,22.0,29.94,North,360,0.0,-999.0,59,-99.99,,,0.00,weatherlink.com 1.10,2013-04-05 10:27:00,
2013-04-05 06:43:00,35.0,22.0,29.94,North,360,0.0,-999.0,60,-99.99,,,0.00,weatherlink.com 1.10,2013-04-05 10:43:00,
2013-04-05 06:58:00,35.2,22.0,29.95,North,360,0.0,-999.0,60,-99.99,,,0.00,weatherlink.com 1.10,2013-04-05 10:58:00,
2013-04-05 07:13:00,35.0,23.0,29.96,North,360,0.0,-999.0,61,-99.99,,,0.00,weatherlink.com 1.10,2013-04-05 11:13:00,
2013-04-05 07:27:00,34.7,22.0,29.97,North,360,0.0,-999.0,61,-99.99,,,0.00,weatherlink.com 1.10,2013-04-05 11:27:00,
2013-04-05 07:43:00,35.0,23.0,29.97,WSW,246,0.0,-999.0,61,-99.99,,,0.00,weatherlink.com 1.10,2013-04-05 11:43:00,
2013-04-05 07:58:00,35.6,23.0,29.98,WSW,246,0.0,-999.0,61,-99.99,,,0.00,weatherlink.com 1.10,2013-04-05 11:58:00,
2013-04-05 08:13:00,36.5,24.0,29.98,WSW,246,0.0,-999.0,61,-99.99,,,0.00,weatherlink.com 1.10,2013-04-05 12:13:00,
2013-04-05 08:28:00,37.6,25.0,29.98,ENE,60,0.0,-999.0,62,-99.99,,,0.00,weatherlink.com 1.10,2013-04-05 12:28:00,
2013-04-05 08:43:00,38.2,25.0,29.98,West,280,0.0,-999.0,60,-99.99,,,0.00,weatherlink.com 1.10,2013-04-05 12:43:00,
2013-04-05 08:58:00,38.6,24.0,29.98,SW,227,0.0,-999.0,56,-99.99,,,0.00,weatherlink.com 1.10,2013-04-05 12:58:00,
2013-04-05 09:13:00,39.1,24.0,29.98,NE,42,0.0,-999.0,55,-99.99,,,0.00,weatherlink.com 1.10,2013-04-05 13:13:00,
2013-04-05 09:28:00,39.3,24.0,29.98,NNW,348,4.0,-999.0,55,-99.99,,,0.00,weatherlink.com 1.10,2013-04-05 13:28:00,
2013-04-05 09:43:00,39.6,23.0,29.98,WSW,238,0.0,-999.0,51,-99.99,,,0.00,weatherlink.com 1.10,2013-04-05 13:43:00,
2013-04-05 09:58:00,39.8,23.0,29.98,NNE,28,3.0,-999.0,51,-99.99,,,0.00,weatherlink.com 1.10,2013-04-05 13:58:00,
2013-04-05 10:13:00,40.2,24.0,29.99,SW,235,3.0,-999.0,52,-99.99,,,0.00,weatherlink.com 1.10,2013-04-05 14:13:00,
2013-04-05 10:28:00,40.2,23.0,29.99,North,360,0.0,-999.0,51,-99.99,,,0.00,weatherlink.com 1.10,2013-04-05 14:28:00,
2013-04-05 10:43:00,40.8,23.0,30.00,North,350,0.0,-999.0,50,-99.99,,,0.00,weatherlink.com 1.10,2013-04-05 14:43:00,
2013-04-05 10:58:00,40.5,23.0,30.00,West,274,0.0,-999.0,49,-99.99,,,0.00,weatherlink.com 1.10,2013-04-05 14:58:00,
2013-04-05 11:13:00,40.5,23.0,30.00,North,5,3.0,-999.0,49,-99.99,,,0.00,weatherlink.com 1.10,2013-04-05 15:13:00,
2013-04-05 11:28:00,40.2,22.0,30.01,NNW,343,6.0,-999.0,49,-99.99,,,0.00,weatherlink.com 1.10,2013-04-05 15:28:00,
2013-04-05 11:43:00,41.3,23.0,30.00,WNW,291,0.0,-999.0,48,-99.99,,,0.00,weatherlink.com 1.10,2013-04-05 15:43:00,
2013-04-05 11:58:00,41.6,24.0,30.00,NNW,331,0.0,-999.0,49,-99.99,,,0.00,weatherlink.com 1.10,2013-04-05 15:58:00,
2013-04-05 12:13:00,40.9,24.0,30.01,North,10,0.0,-999.0,51,-99.99,,,0.00,weatherlink.com 1.10,2013-04-05 16:13:00,
2013-04-05 12:28:00,40.8,24.0,30.01,NNE,24,2.0,-999.0,52,-99.99,,,0.00,weatherlink.com 1.10,2013-04-05 16:28:00,
2013-04-05 12:43:00,41.8,24.0,30.01,NW,321,0.0,-999.0,50,-99.99,,,0.00,weatherlink.com 1.10,2013-04-05 16:43:00,
2013-04-05 12:58:00,40.1,24.0,30.02,NNE,32,4.0,-999.0,53,-99.99,,,0.00,weatherlink.com 1.10,2013-04-05 16:58:00,
2013-04-05 13:13:00,40.8,24.0,30.02,WNW,298,5.0,-999.0,51,-99.99,,,0.00,weatherlink.com 1.10,2013-04-05 17:13:00,
2013-04-05 13:28:00,41.3,25.0,30.02,ENE,74,3.0,-999.0,52,-99.99,,,0.00,weatherlink.com 1.10,2013-04-05 17:28:00,
2013-04-05 13:43:00,41.5,22.0,30.02,North,5,1.0,-999.0,47,-99.99,,,0.00,weatherlink.com 1.10,2013-04-05 17:43:00,
2013-04-05 13:58:00,40.8,21.0,30.02,North,11,2.0,-999.0,45,-99.99,,,0.00,weatherlink.com 1.10,2013-04-05 17:58:00,
2013-04-05 14:13:00,42.3,19.0,30.02,West,261,2.0,-999.0,39,-99.99,,,0.00,weatherlink.com 1.10,2013-04-05 18:13:00,
2013-04-05 14:28:00,41.9,21.0,30.02,NNE,29,0.0,-999.0,43,-99.99,,,0.00,weatherlink.com 1.10,2013-04-05 18:28:00,
2013-04-05 14:43:00,41.5,20.0,30.02,West,273,0.0,-999.0,43,-99.99,,,0.00,weatherlink.com 1.10,2013-04-05 18:43:00,
2013-04-05 14:58:00,41.1,20.0,30.02,North,360,3.0,-999.0,43,-99.99,,,0.00,weatherlink.com 1.10,2013-04-05 18:58:00,
2013-04-05 15:13:00,41.8,22.0,30.02,North,360,0.0,-999.0,45,-99.99,,,0.00,weatherlink.com 1.10,2013-04-05 19:13:00,
2013-04-05 15:28:00,41.9,22.0,30.01,NE,54,1.0,-999.0,45,-99.99,,,0.00,weatherlink.com 1.10,2013-04-05 19:28:00,
2013-04-05 15:43:00,42.5,23.0,30.02,NW,310,0.0,-999.0,46,-99.99,,,0.00,weatherlink.com 1.10,2013-04-05 19:43:00,
2013-04-05 15:58:00,42.8,23.0,30.02,North,11,4.0,-999.0,46,-99.99,,,0.00,weatherlink.com 1.10,2013-04-05 19:58:00,
2013-04-05 16:13:00,42.3,19.0,30.02,NNW,337,5.0,-999.0,40,-99.99,,,0.00,weatherlink.com 1.10,2013-04-05 20:13:00,
2013-04-05 16:28:00,42.1,20.0,30.02,NNW,336,8.0,-999.0,41,-99.99,,,0.00,weatherlink.com 1.10,2013-04-05 20:28:00,
2013-04-05 16:43:00,42.1,20.0,30.02,North,360,0.0,-999.0,41,-99.99,,,0.00,weatherlink.com 1.10,2013-04-05 20:43:00,
2013-04-05 16:58:00,41.3,18.0,30.02,North,355,4.0,-999.0,40,-99.99,,,0.00,weatherlink.com 1.10,2013-04-05 20:58:00,
2013-04-05 17:13:00,40.9,18.0,30.03,North,355,5.0,-999.0,39,-99.99,,,0.00,weatherlink.com 1.10,2013-04-05 21:13:00,
2013-04-05 17:28:00,40.6,18.0,30.03,NNW,346,0.0,-999.0,41,-99.99,,,0.00,weatherlink.com 1.10,2013-04-05 21:28:00,
2013-04-05 17:43:00,40.1,18.0,30.04,NNE,22,3.0,-999.0,41,-99.99,,,0.00,weatherlink.com 1.10,2013-04-05 21:43:00,
2013-04-05 17:57:00,39.9,18.0,30.05,West,271,4.0,-999.0,42,-99.99,,,0.00,weatherlink.com 1.10,2013-04-05 21:57:00,
2013-04-05 18:13:00,39.2,18.0,30.05,NNE,21,2.0,-999.0,42,-99.99,,,0.00,weatherlink.com 1.10,2013-04-05 22:13:00,
2013-04-05 18:28:00,39.2,19.0,30.06,NNE,19,2.0,-999.0,44,-99.99,,,0.00,weatherlink.com 1.10,2013-04-05 22:28:00,
2013-04-05 18:43:00,38.0,18.0,30.07,NNE,19,3.0,-999.0,44,-99.99,,,0.00,weatherlink.com 1.10,2013-04-05 22:43:00,
2013-04-05 18:58:00,37.3,18.0,30.08,ENE,71,1.0,-999.0,46,-99.99,,,0.00,weatherlink.com 1.10,2013-04-05 22:58:00,
2013-04-05 19:13:00,36.5,18.0,30.09,North,355,0.0,-999.0,47,-99.99,,,0.00,weatherlink.com 1.10,2013-04-05 23:13:00,
2013-04-05 19:28:00,35.8,17.0,30.09,North,10,0.0,-999.0,47,-99.99,,,0.00,weatherlink.com 1.10,2013-04-05 23:28:00,
2013-04-05 19:43:00,35.2,17.0,30.10,NNE,12,2.0,-999.0,48,-99.99,,,0.00,weatherlink.com 1.10,2013-04-05 23:43:00,
2013-04-05 19:58:00,34.6,17.0,30.10,NNE,24,0.0,-999.0,49,-99.99,,,0.00,weatherlink.com 1.10,2013-04-05 23:58:00,
2013-04-05 20:13:00,34.1,17.0,30.11,NNE,26,0.0,-999.0,49,-99.99,,,0.00,weatherlink.com 1.10,2013-04-06 00:13:00,
2013-04-05 20:28:00,33.7,17.0,30.11,NNE,26,0.0,-999.0,50,-99.99,,,0.00,weatherlink.com 1.10,2013-04-06 00:28:00,
2013-04-05 20:42:00,33.4,17.0,30.12,NE,40,0.0,-999.0,51,-99.99,,,0.00,weatherlink.com 1.10,2013-04-06 00:42:00,
2013-04-05 20:58:00,32.9,17.0,30.13,North,355,0.0,-999.0,52,-99.99,,,0.00,weatherlink.com 1.10,2013-04-06 00:58:00,
2013-04-05 21:13:00,32.7,17.0,30.14,North,360,0.0,-999.0,52,-99.99,,,0.00,weatherlink.com 1.10,2013-04-06 01:13:00,
2013-04-05 21:28:00,32.2,16.0,30.15,NNE,23,0.0,-999.0,52,-99.99,,,0.00,weatherlink.com 1.10,2013-04-06 01:28:00,
2013-04-05 22:13:00,31.0,15.0,30.16,NE,42,0.0,-999.0,51,-99.99,,,0.00,weatherlink.com 1.10,2013-04-06 02:13:00,
2013-04-05 22:43:00,30.3,15.0,30.17,North,355,0.0,-999.0,53,-99.99,,,0.00,weatherlink.com 1.10,2013-04-06 02:43:00,
2013-04-05 23:15:00,29.8,15.0,30.18,North,10,0.0,-999.0,54,-99.99,,,0.00,weatherlink.com 1.10,2013-04-06 03:15:00,
2013-04-05 23:28:00,29.7,15.0,30.17,NE,50,0.0,-999.0,55,-99.99,,,0.00,weatherlink.com 1.10,2013-04-06 03:28:00,
2013-04-05 23:43:00,29.4,15.0,30.18,NNE,29,0.0,-999.0,55,-99.99,,,0.00,weatherlink.com 1.10,2013-04-06 03:43:00,
2013-04-05 23:57:00,29.1,15.0,30.18,NNE,31,0.0,-999.0,56,-99.99,,,0.00,weatherlink.com 1.10,2013-04-06 03:57:00,